Flag for Czech Republic Weather past 2 weeks in Ostrava, Czech Republic

Now
35 °F

Passing clouds.


Feels Like: 30 °F
Forecast: 32 / 40 °F
Wind: 7 mph from Southwest

Location: Ostrava / Mosnov

Current Time: Apr 1, 2015 at 11:51:49 PM

Latest Report: Apr 1, 2015 at 10:00 PM


Visibility: 16 mi

Pressure: 29.87 "Hg

Humidity: 73%

Dew point: 28 °F

Location of OstravaLocation

Historic Weather in Ostrava — Graph

°F

Ostrava temperature yesterday

Maximum temperature yesterday: 46 °F (at 5:00 PM)
Minimum temperature yesterday: 33 °F (at 4:00 AM)
Average temperature yesterday: 40 °F

Past Weeks' High & Low Weather Summary

 TemperatureHumidityPressure
High64 °F (Mar 25, 12:00 PM)97% (Mar 29, 7:00 AM)30.45 "Hg (Mar 29, 7:00 AM)
Low26 °F (Mar 20, 6:00 AM)31% (Mar 18, 2:00 PM)29.32 "Hg (Mar 31, 3:00 PM)
Average43 °F69%29.96 "Hg
* Reported Mar 17 9:00 PM — Apr 1 10:00 PM, Ostrava, Weather by CustomWeather, © 2015

Note: Actual official high and low records may vary slightly from our data, if they occured in-between our weather recording intervals... More about our weather records

Advertising

Ostrava weather history for previous 24 hours

 ConditionsComfort  
Time TempWeatherWind HumidityBarometerVisibility
10:00 PM
Wed, Apr 1
35 °FPassing clouds.7 mph73%29.87 "Hg16 mi
9:00 PM36 °FPassing clouds.6 mph71%29.87 "Hg16 mi
8:00 PM36 °FPassing clouds.7 mph71%29.87 "Hg16 mi
7:00 PM37 °FPartly sunny.9 mph80%29.84 "Hg19 mi
6:00 PM42 °FPartly sunny.8 mph61%29.79 "Hg19 mi
5:00 PM44 °FPartly sunny.10 mph56%29.78 "Hg19 mi
4:00 PM44 °FPartly sunny.8 mph47%29.76 "Hg19 mi
3:00 PM42 °FPartly sunny.7 mph60%29.77 "Hg16 mi
2:00 PM43 °FPartly sunny.10 mph53%29.76 "Hg16 mi
1:00 PM41 °FOvercast.10 mph63%29.76 "Hg16 mi
12:00 PM40 °FOvercast.8 mph64%29.75 "Hg16 mi
11:00 AM39 °FOvercast.9 mph70%29.73 "Hg16 mi
10:00 AM39 °FOvercast.9 mph69%29.70 "Hg25 mi
9:00 AM38 °FPartly sunny.7 mph74%29.68 "Hg25 mi
8:00 AM37 °FPartly sunny.8 mph82%29.66 "Hg16 mi
7:00 AM36 °FScattered clouds.5 mph83%29.63 "Hg12 mi
6:00 AM38 °FPassing clouds.8 mph61%29.61 "Hg9 mi
4:00 AM39 °FPassing clouds.9 mph70%29.60 "Hg25 mi
3:00 AM38 °FPassing clouds.9 mph68%29.57 "Hg25 mi
2:00 AM40 °FPassing clouds.7 mph63%29.59 "Hg25 mi
1:00 AM41 °FPassing clouds.7 mph64%29.60 "Hg25 mi
12:00 AM42 °FPassing clouds.10 mph70%29.56 "Hg25 mi
Weather by CustomWeather, © 2015

See weather overviewHow to use our weather pages